SKYKRAFT-4B (64896 NORAD) Tracking and Keplerian Element Data

This shows tracking and keplerian element data for the satellite.

Feedback or suggestion? Click here.




ElementValue
Catalog64896
NameSKYKRAFT-4B
Epoch Orbit17241
Epoch Day354.20106074
Epoch Year2025
RAAN57.1441
Inclination97.6944
Eccentricity0.0006649
Argument of Perigee128.7785
Mean Anonmoly231.403
Mean Motion14.93819359
Decay Rate3.846E-05
L11 64896U 25154H 25354.20106074 .00003846 00000+0 36756-3 0 9999
L22 64896 97.6944 57.1441 0006649 128.7785 231.4030 14.93819359172419



Live tracking and technical data element details for SKYKRAFT-4B (NORAD 64896). SKYKRAFT-4B can be tracked NOW for your location showing map with azimuth and elevation plus other details from your city location.







IsCatalogInMostPopularTable: catalog: 64896, numindb: 5
Update: records affected: 1



GetName: 64896 SKYKRAFT-4B

Hit Count: updated at: Mon, 20 Apr 2026 10:09:28 GMT